Creek Data

    Home     View Charts     View Raw Data     Messages

ID Distance Battery Voltage Battery Current Internal Temp Internal Humidity External Temp Solar Input rssi snr Time Stamp Record
32575 12.6 3.60 -5 51 39 52 0.1 -80 8 02/16/2025 07:30 PM 14247
32574 12.6 3.63 -5 51 39 52 0 -80 8 02/16/2025 07:15 PM 14246
32573 12.6 3.77 -5 52 39 52 0.1 -80 8 02/16/2025 07:00 PM 14245
32572 12.6 3.60 -5 52 40 54 0 -80 8 02/16/2025 06:45 PM 14244
32571 12.6 3.58 -5 53 40 53 0 -79 8 02/16/2025 06:30 PM 14243
32570 12.6 3.77 -5 54 41 54 0 -79 8 02/16/2025 06:15 PM 14242
32569 12.6 3.64 -5 55 41 55 0.9 -79 8 02/16/2025 06:00 PM 14241
32568 12.6 3.73 -10 57 40 55 4.2 -78 7 02/16/2025 05:45 PM 14240
32567 12.6 3.64 7 60 39 58 4.5 -78 8 02/16/2025 05:30 PM 14239
32566 12.6 3.74 0 61 39 60 5.1 -78 6 02/16/2025 05:15 PM 14238
32565 12.6 3.74 0 61 39 60 5.1 -77 8 02/16/2025 05:00 PM 14237
32564 12.6 4.05 0 61 40 59 5.1 -77 8 02/16/2025 04:45 PM 14236
32563 12.6 4.04 0 62 39 60 5.1 -77 8 02/16/2025 04:30 PM 14235
32562 12.6 3.74 0 63 39 61 5.1 -77 8 02/16/2025 04:15 PM 14234
32561 12.6 3.74 0 63 39 60 5.1 -77 7 02/16/2025 04:00 PM 14233
32560 12.6 3.81 0 65 38 61 5.1 -77 7 02/16/2025 03:45 PM 14232
32559 12.6 3.74 0 65 39 61 5.1 -77 7 02/16/2025 03:30 PM 14231
32558 12.6 3.74 0 66 39 61 5.1 -77 8 02/16/2025 03:15 PM 14230
32557 12.6 4.06 0 67 39 61 5.1 -77 7 02/16/2025 03:00 PM 14229
32556 12.7 4.01 0 68 38 63 5.1 -77 8 02/16/2025 02:45 PM 14228
32555 12.7 3.74 0 69 38 63 5.1 -78 7 02/16/2025 02:30 PM 14227
32554 12.7 3.74 0 69 38 63 5.1 -78 8 02/16/2025 02:15 PM 14226
32553 12.7 3.74 0 69 37 62 5.1 -77 8 02/16/2025 02:00 PM 14225
32552 12.7 3.74 0 71 36 64 5.1 -77 8 02/16/2025 01:45 PM 14224
32551 12.7 3.74 0 70 35 64 5.1 -79 7 02/16/2025 01:30 PM 14223